McConnell AFB, KS

6:14 PM CDT on April 25, 2018 (GMT -0500)
McConnell Air Force Base

Weather History for KIAB - January, 2014

Change the Weather History Date:

Monday, January 20, 2014

  Actual Average Record
Temperature  
Mean Temperature 42 °F -  
Max Temperature 56 °F 42 °F 69 °F (1997)
Min Temperature 28 °F 23 °F 8 °F (2001)
Degree Days  
Heating Degree Days 22    
Moisture  
Dew Point 20 °F    
Average Humidity 46    
Maximum Humidity 88    
Minimum Humidity 23    
Precipitation  
Precipitation 0.00 in - - ()
Sea Level Pressure  
Sea Level Pressure 30.09 in    
Wind  
Wind Speed 12 mph (North)    
Max Wind Speed 31 mph    
Max Gust Speed 46 mph    
Visibility 10 miles    
Events      
Averages and records for this station are not official NWS values.
T = Trace of Precipitation, MM = Missing Value Source: NWS Daily Summary

Daily Weather History Graph

Daily Weather History Graph

Search for Another Location

Airport or City:

Astronomy

Jan. 20, 2014 Rise Set
Actual Time 7:40 AM CST 5:39 PM CST
Civil Twilight 7:12 AM CST 6:08 PM CST
Nautical Twilight 6:40 AM CST 6:40 PM CST
Astronomical Twilight 6:09 AM CST 7:11 PM CST
Moon 10:09 PM CST (1/20) 9:46 AM CST (1/20)
Length of Visible Light 10h 55m
Length of Day
9h 59m
Waning Gibbous, 82% of the Moon is Illuminated
Jan 20
Waning Gibbous
Jan 23
Last Quarter
Jan 30
New
Feb 6
First Quarter
Feb 14
Full

Hourly Weather History & Observations

Time (CST) Temp. Windchill Dew Point Humidity Pressure Visibility Wind Dir Wind Speed Gust Speed Precip Events Conditions
12:58 AM 41.0 °F 39.0 °F 23.5 °F 50% 29.87 in 10.0 mi South 3.5 mph - N/A   Clear
1:58 AM 38.5 °F - 23.7 °F 55% 29.86 in 10.0 mi ESE 1.2 mph - N/A   Clear
2:58 AM 34.9 °F - 24.3 °F 65% 29.86 in 10.0 mi SSE 2.3 mph - N/A   Clear
3:58 AM 33.8 °F 29.6 °F 25.5 °F 72% 29.86 in 10.0 mi WNW 4.6 mph - N/A   Clear
4:58 AM 33.1 °F - 25.3 °F 73% 29.87 in 10.0 mi North 2.3 mph - N/A   Clear
5:58 AM 31.6 °F 27.0 °F 26.8 °F 82% 29.87 in 10.0 mi NNW 4.6 mph - N/A   Clear
6:58 AM 29.5 °F 21.8 °F 24.8 °F 83% 29.90 in 10.0 mi NNE 8.1 mph - N/A   Clear
7:58 AM 30.0 °F 21.7 °F 27.0 °F 88% 29.93 in 10.0 mi NNE 9.2 mph - N/A   Clear
8:58 AM 38.8 °F 30.4 °F 26.1 °F 60% 29.97 in 10.0 mi NNE 15.0 mph - N/A   Clear
9:58 AM 45.1 °F 37.9 °F 25.5 °F 46% 30.00 in 10.0 mi NE 17.3 mph - N/A   Clear
10:58 AM 51.4 °F - 25.3 °F 36% 30.05 in 10.0 mi NNE 15.0 mph - N/A   Clear
11:58 AM 53.2 °F - 25.7 °F 34% 30.07 in 10.0 mi North 23.0 mph 29.9 mph N/A   Clear
12:58 PM 55.6 °F - 23.0 °F 28% 30.06 in 10.0 mi North 23.0 mph 25.3 mph N/A   Clear
1:58 PM 56.5 °F - 18.9 °F 23% 30.06 in 10.0 mi North 24.2 mph 32.2 mph N/A   Clear
2:58 PM 54.7 °F - 21.7 °F 28% 30.09 in 10.0 mi North 21.9 mph 27.6 mph N/A   Clear
3:58 PM 52.7 °F - 18.1 °F 26% 30.14 in 10.0 mi North 27.6 mph 32.2 mph N/A   Clear
4:58 PM 51.6 °F - 18.5 °F 27% 30.16 in 10.0 mi North 18.4 mph 25.3 mph N/A   Clear
5:58 PM 49.3 °F - 16.9 °F 28% 30.20 in 10.0 mi North 17.3 mph 26.5 mph N/A   Clear
6:58 PM 45.0 °F 38.5 °F 17.8 °F 34% 30.24 in 10.0 mi NNW 13.8 mph - N/A   Clear
7:58 PM 44.4 °F 36.9 °F 16.9 °F 33% 30.26 in 10.0 mi North 17.3 mph - N/A   Clear
8:58 PM 42.1 °F 31.5 °F 20.5 °F 42% 30.29 in 10.0 mi North 28.8 mph 35.7 mph N/A   Clear
9:58 PM 36.9 °F 24.9 °F 15.1 °F 41% 30.32 in 10.0 mi North 26.5 mph 35.7 mph N/A   Clear
10:09 PM 35.6 °F 22.3 °F 10.4 °F 35% 30.30 in 10.0 mi North 31.1 mph 46.0 mph N/A   Squalls
10:16 PM 35.6 °F 22.3 °F 8.6 °F 33% 30.30 in 10.0 mi North 31.1 mph 43.7 mph N/A   Squalls
10:58 PM 33.3 °F 20.3 °F 9.0 °F 36% 30.36 in 10.0 mi North 25.3 mph 31.1 mph N/A   Clear
11:58 PM 28.6 °F 14.6 °F 6.1 °F 39% 30.39 in 10.0 mi North 23.0 mph 35.7 mph N/A   Clear